DateTimeUTC,F1_A11,F1_S11,BsB_S11,BsG_S11,BsR_S11,BbsB_S11,BbsG_S11,BbsR_S11,BaB_A11,BaG_A11,BaR_A11,Tu_S11,T_S11,Uu_S11,U_S11,P_S11,T1_A11
2021-02-28T17:00:00Z,00000200,21000000,,,,,,,-000.19,-000.27,-000.33,17.1,24.6,,00.0,0633.0,31.0
2021-02-28T17:01:00Z,00000200,21000000,,,,,,,0000.25,0000.18,0000.16,17.0,24.6,,00.0,0633.0,31.0
2021-02-28T17:02:00Z,00000200,21000000,,,,,,,-000.57,-000.14,-000.18,17.0,24.6,,00.0,0633.0,31.0
2021-02-28T17:03:00Z,00000200,61000000,,,,,,,0000.40,0000.16,0000.64,17.0,24.6,,00.0,0633.0,31.0
2021-02-28T17:04:00Z,00000200,41000000,0001.30,0001.08,0000.53,0000.50,0000.48,0000.16,0000.62,0000.53,0000.11,17.1,24.3,,00.0,0634.0,31.0
2021-02-28T17:05:00Z,00000200,01000000,0001.30,0000.92,0000.33,-000.12,0000.06,0000.09,0000.03,0000.05,0000.09,17.1,24.2,,00.0,0634.1,31.0
2021-02-28T17:06:00Z,00000200,01000000,0000.98,0001.14,0000.28,0000.18,0000.46,0000.14,0000.78,0000.41,0000.20,17.0,24.2,,00.0,0634.0,31.0
2021-02-28T17:07:00Z,00000200,01000000,0001.03,0001.40,0000.36,0000.59,0000.35,0000.23,-000.13,0000.45,0000.00,17.0,24.1,,00.0,0634.1,31.0
2021-02-28T17:08:00Z,00000200,01000000,0001.32,0000.87,0000.61,0000.64,0000.26,0000.18,0000.83,0000.32,0000.42,17.0,24.1,,00.0,0634.1,31.0
2021-02-28T17:09:00Z,00000200,01000000,0001.60,0001.30,0000.49,0000.36,0000.20,0000.04,0000.20,-000.13,0000.38,17.0,24.1,,00.0,0634.1,30.9
2021-02-28T17:10:00Z,00000200,01000000,0000.91,0001.27,0000.63,-000.06,0000.45,0000.08,0000.44,0000.87,0000.22,16.9,24.0,,00.0,0634.1,31.0
2021-02-28T17:11:00Z,00000200,01000000,0000.94,0001.17,0000.72,-000.01,0000.34,0000.08,0000.24,-000.28,0000.21,16.9,24.0,,00.0,0634.2,31.0
2021-02-28T17:12:00Z,00000200,01000000,0000.75,0000.83,0000.51,0000.36,0000.42,0000.14,0000.57,0000.82,0000.22,16.9,24.0,,00.0,0634.2,30.9
2021-02-28T17:13:00Z,00000200,01000000,0001.02,0000.78,0000.76,0000.18,0000.06,0000.14,0000.59,0000.14,0000.20,16.8,23.9,,00.0,0634.2,31.0
2021-02-28T17:14:00Z,00000200,01000000,0001.54,0000.94,0000.58,0000.20,0000.19,0000.29,-000.11,0000.07,0000.15,16.8,23.9,,00.0,0634.2,30.9
2021-02-28T17:15:00Z,00000200,01000000,0001.55,0000.98,0000.49,0000.36,0000.15,0000.12,0000.78,0000.29,-000.11,16.9,23.9,,00.0,0634.2,30.9
2021-02-28T17:16:00Z,00000200,01000000,0001.13,0001.09,0000.51,0000.37,0000.19,0000.18,0000.26,0000.52,0000.40,16.9,24.0,,00.0,0634.2,30.9
2021-02-28T17:17:00Z,00000200,01000000,0001.48,0001.02,0000.59,0000.05,0000.29,0000.40,0000.57,0000.31,0000.37,17.0,24.0,,00.0,0634.2,31.0
2021-02-28T17:18:00Z,00000200,01000000,0001.35,0000.97,0000.46,0000.41,0000.36,0000.14,0000.14,0000.42,0000.22,17.0,24.0,,00.0,0634.3,31.0
2021-02-28T17:19:00Z,00000200,01000000,0001.17,0001.10,0000.63,0000.32,0000.21,0000.11,0000.35,0000.53,0000.07,17.1,24.0,,00.0,0634.3,31.0
2021-02-28T17:20:00Z,00000200,01000000,0001.50,0000.89,0000.53,0000.50,0000.59,0000.07,0000.43,0000.63,0000.09,17.2,24.1,,00.0,0634.4,31.0
2021-02-28T17:21:00Z,00000200,01000000,0001.34,0000.96,0000.44,0000.33,0000.42,0000.04,0000.16,0000.16,0000.33,17.2,24.1,,00.0,0634.4,31.0
2021-02-28T17:22:00Z,00000200,01000000,0000.87,0001.09,0000.73,0000.24,0000.45,0000.20,0000.80,0000.66,0000.83,17.3,24.1,,00.0,0634.4,31.0
2021-02-28T17:23:00Z,00000200,01000000,0001.40,0000.95,0000.71,-000.10,0000.24,0000.23,0000.40,0000.31,0000.27,17.3,24.1,,00.0,0634.4,31.0
2021-02-28T17:24:00Z,00000200,01000000,0001.00,0001.16,0000.48,0000.35,0000.24,0000.24,0000.59,0000.84,0000.44,17.2,24.1,,00.0,0634.4,31.0
2021-02-28T17:25:00Z,00000200,01000000,0001.28,0000.96,0000.39,-000.03,0000.40,0000.16,0000.06,-000.05,-000.07,17.2,24.1,,00.0,0634.5,31.0
2021-02-28T17:26:00Z,00000200,01000000,0001.09,0001.14,0000.54,0000.51,0000.15,0000.49,0000.85,0000.15,0000.62,17.1,24.1,,00.0,0634.5,31.0
2021-02-28T17:27:00Z,00000200,01000000,0001.21,0000.95,0000.63,0000.33,0000.43,0000.15,0000.31,0000.26,0000.02,17.1,24.0,,00.0,0634.5,31.0
2021-02-28T17:28:00Z,00000200,01000000,0001.45,0001.18,0000.71,0000.05,0000.00,0000.08,0000.26,0000.21,0000.27,17.1,24.0,,00.0,0634.5,31.0
2021-02-28T17:29:00Z,00000200,01000000,0001.61,0000.82,0000.81,0000.59,0000.32,0000.24,0000.15,0000.49,0000.12,17.1,24.0,,00.0,0634.5,31.0
2021-02-28T17:30:00Z,00000200,01000000,0001.04,0001.06,0000.77,-000.03,0000.29,0000.46,0000.49,-000.07,0000.38,17.1,24.0,,00.0,0634.5,31.0
2021-02-28T17:31:00Z,00000200,01000000,0001.01,0001.00,0000.70,0000.69,0000.45,0000.18,0000.80,0000.82,0000.38,17.1,24.0,,00.0,0634.5,31.0
2021-02-28T17:32:00Z,00000200,01000000,0001.60,0001.02,0000.63,0000.11,0000.40,-000.00,0000.37,0000.27,-000.09,17.2,24.0,,00.0,0634.5,31.0
2021-02-28T17:33:00Z,00000200,01000000,0001.14,0001.13,0000.70,0000.58,0000.21,0000.23,0000.64,0000.63,0000.30,17.2,24.1,,00.0,0634.5,31.0
2021-02-28T17:34:00Z,00000200,01000000,0001.11,0000.86,0000.50,-000.22,0000.35,0000.04,0000.45,0000.41,0000.50,17.3,24.1,,00.0,0634.6,31.0
2021-02-28T17:35:00Z,00000200,01000000,0001.42,0000.87,0000.66,0000.18,0000.22,0000.27,0000.09,0000.38,0000.45,17.3,24.1,,00.0,0634.6,31.0
2021-02-28T17:36:00Z,00000200,01000000,0001.48,0001.22,0000.90,0000.50,0000.01,0000.27,0000.62,0000.67,-000.01,17.3,24.1,,00.0,0634.6,31.0
2021-02-28T17:37:00Z,00000200,01000000,0000.97,0000.94,0000.82,0000.41,0000.37,0000.33,0000.22,0000.15,0000.42,17.3,24.1,,00.0,0634.6,31.0
2021-02-28T17:38:00Z,00000200,01000000,0001.33,0001.31,0000.53,0000.02,0000.09,0000.19,0000.45,0000.31,0000.39,17.3,24.1,,00.0,0634.6,31.0
2021-02-28T17:39:00Z,00000200,01000000,0002.01,0001.28,0000.73,0001.07,0000.28,0000.20,0000.52,0000.67,0000.51,17.2,24.1,,00.0,0634.6,31.0
2021-02-28T17:40:00Z,00000200,01000000,0002.04,0001.04,0000.43,0000.25,0000.35,0000.15,0000.04,0000.15,-000.24,17.2,24.0,,00.0,0634.6,31.0
2021-02-28T17:41:00Z,00000200,01000000,0001.26,0000.98,0000.62,0000.34,0000.45,0000.29,0000.70,0000.17,0000.60,17.1,24.0,,00.0,0634.6,31.0
2021-02-28T17:42:00Z,00000200,01000000,0001.88,0001.01,0000.64,0000.24,0000.28,0000.20,0000.20,0000.48,0000.13,17.1,24.0,,00.0,0634.7,31.0
2021-02-28T17:43:00Z,00000200,01000000,0001.33,0001.07,0000.61,0000.46,0000.26,0000.31,0000.46,0000.28,-000.12,17.1,24.0,,00.0,0634.7,31.0
2021-02-28T17:44:00Z,00000200,01000000,0001.78,0001.06,0000.92,0000.44,0000.42,0000.28,0000.37,0000.37,0000.30,17.1,24.0,,00.0,0634.7,31.0
2021-02-28T17:45:00Z,00000200,01000000,0001.24,0001.23,0000.42,0000.80,0000.53,0000.14,0000.58,-000.11,0000.47,17.1,24.0,,00.0,0634.7,31.0
2021-02-28T17:46:00Z,00000200,01000000,0001.23,0000.83,0000.64,0000.16,0000.37,0000.22,0000.24,0001.02,0000.17,17.1,24.0,,00.0,0634.7,31.0
2021-02-28T17:47:00Z,00000200,01000000,0001.90,0001.18,0000.78,0000.13,0000.36,0000.42,0000.83,0000.14,0000.46,17.2,24.0,,00.0,0634.7,31.0
2021-02-28T17:48:00Z,00000200,01000000,0002.07,0001.12,0000.79,0000.33,0000.42,0000.19,0000.24,0000.41,0000.04,17.3,24.1,,00.0,0634.7,31.0
2021-02-28T17:49:00Z,00000200,01000000,0001.36,0000.95,0000.45,0000.25,0000.23,0000.35,0000.47,0000.59,0000.35,17.3,24.1,,00.0,0634.7,31.0
2021-02-28T17:50:00Z,00000200,01000000,0000.80,0000.91,0000.67,-000.23,0000.32,0000.12,0000.21,0000.34,0000.28,17.3,24.1,,00.0,0634.7,31.0
2021-02-28T17:51:00Z,00000200,01000000,0001.20,0000.81,0000.47,0000.14,0000.36,0000.39,0000.65,0000.42,0000.53,17.3,24.1,,00.0,0634.7,31.0
2021-02-28T17:52:00Z,00000200,01000000,0001.15,0000.99,0000.75,0000.24,0000.35,0000.19,0000.37,0000.45,0000.51,17.2,24.1,,00.0,0634.7,31.0
2021-02-28T17:53:00Z,00000200,01000000,0001.37,0001.07,0000.62,-000.26,0000.56,0000.16,0000.01,0000.38,-000.15,17.2,24.1,,00.0,0634.8,31.0
2021-02-28T17:54:00Z,00000200,01000000,0001.14,0001.10,0000.51,-000.14,0000.31,0000.27,0001.18,0000.25,0000.28,17.2,24.0,,00.0,0634.8,31.0
2021-02-28T17:55:00Z,00000200,01000000,0001.36,0000.86,0000.66,0000.31,0000.31,0000.23,0000.08,0000.41,0000.30,17.1,24.0,,00.0,0634.8,31.0
2021-02-28T17:56:00Z,00000200,01000000,0001.59,0001.14,0000.57,-000.23,0000.39,0000.30,0000.37,0000.42,0000.26,17.1,24.0,,00.0,0634.8,31.0
2021-02-28T17:57:00Z,00000200,41000000,,,,,,,0000.41,0000.52,0000.30,17.1,24.0,,00.0,0634.8,31.0
2021-02-28T17:58:00Z,00000200,61000000,,,,,,,-000.03,-000.77,-000.12,16.7,24.1,,00.0,0633.8,31.0
2021-02-28T17:59:00Z,00000200,21000000,,,,,,,-000.38,-000.16,-000.27,16.7,24.2,,00.0,0633.8,31.0
